Time,TemperatureF,DewpointF,PressureIn,WindDirection,WindDirectionDegrees,WindSpeedMPH,WindSpeedGustMPH,Humidity,HourlyPrecipIn,Conditions,Clouds,dailyrainin,SoftwareType,DateUTC
2013-05-24 00:11:00,65.0,63.0,29.80,WSW,253,0.0,1.0,93,0.15,,,0.15,weatherlink.com 1.10,2013-05-24 04:11:00,
2013-05-24 00:26:00,64.9,63.0,29.79,WSW,253,0.0,1.0,94,0.04,,,0.15,weatherlink.com 1.10,2013-05-24 04:26:00,
2013-05-24 00:41:00,64.9,63.0,29.77,WSW,253,0.0,0.0,94,0.02,,,0.15,weatherlink.com 1.10,2013-05-24 04:41:00,
2013-05-24 00:56:00,64.9,63.0,29.77,WSW,255,0.0,2.0,94,0.01,,,0.00,weatherlink.com 1.10,2013-05-24 04:56:00,
2013-05-24 01:11:00,64.8,63.0,29.75,WSW,257,0.0,2.0,93,0.00,,,0.00,weatherlink.com 1.10,2013-05-24 05:11:00,
2013-05-24 01:26:00,64.7,63.0,29.74,West,261,0.0,1.0,93,0.00,,,0.00,weatherlink.com 1.10,2013-05-24 05:26:00,
2013-05-24 01:41:00,64.8,63.0,29.74,West,261,0.0,1.0,93,0.00,,,0.00,weatherlink.com 1.10,2013-05-24 05:41:00,
2013-05-24 01:56:00,64.4,62.0,29.75,West,261,0.0,0.0,93,0.00,,,0.00,weatherlink.com 1.10,2013-05-24 05:56:00,
2013-05-24 02:11:00,64.0,62.0,29.75,West,261,0.0,0.0,94,0.00,,,0.00,weatherlink.com 1.10,2013-05-24 06:11:00,
2013-05-24 02:27:00,63.9,62.0,29.75,West,261,0.0,0.0,94,0.00,,,0.00,weatherlink.com 1.10,2013-05-24 06:27:00,
2013-05-24 02:41:00,63.8,62.0,29.75,West,261,0.0,0.0,95,0.00,,,0.00,weatherlink.com 1.10,2013-05-24 06:41:00,
2013-05-24 02:56:00,63.8,62.0,29.76,West,261,0.0,0.0,95,0.00,,,0.00,weatherlink.com 1.10,2013-05-24 06:56:00,
2013-05-24 03:11:00,63.6,62.0,29.75,West,261,0.0,0.0,95,0.00,,,0.00,weatherlink.com 1.10,2013-05-24 07:11:00,
2013-05-24 03:26:00,63.6,62.0,29.76,West,261,0.0,0.0,95,0.00,,,0.00,weatherlink.com 1.10,2013-05-24 07:26:00,
2013-05-24 03:41:00,63.6,62.0,29.75,West,261,0.0,1.0,95,0.00,,,0.00,weatherlink.com 1.10,2013-05-24 07:41:00,
2013-05-24 03:56:00,63.5,62.0,29.75,NW,305,1.0,2.0,95,0.01,,,0.01,weatherlink.com 1.10,2013-05-24 07:56:00,
2013-05-24 04:11:00,63.4,62.0,29.75,NNW,332,0.0,1.0,95,0.01,,,0.01,weatherlink.com 1.10,2013-05-24 08:11:00,
2013-05-24 04:26:00,63.4,62.0,29.75,NNW,332,0.0,0.0,95,0.01,,,0.01,weatherlink.com 1.10,2013-05-24 08:26:00,
2013-05-24 04:41:00,63.4,62.0,29.76,NNW,332,0.0,1.0,95,0.01,,,0.01,weatherlink.com 1.10,2013-05-24 08:41:00,
2013-05-24 04:56:00,63.3,62.0,29.76,NNW,332,0.0,0.0,95,0.00,,,0.01,weatherlink.com 1.10,2013-05-24 08:56:00,
2013-05-24 05:11:00,63.3,62.0,29.77,NNW,332,0.0,0.0,95,0.00,,,0.01,weatherlink.com 1.10,2013-05-24 09:11:00,
2013-05-24 05:26:00,63.4,62.0,29.77,NNW,332,0.0,1.0,95,0.00,,,0.01,weatherlink.com 1.10,2013-05-24 09:26:00,
2013-05-24 05:41:00,63.4,62.0,29.78,NNW,332,0.0,0.0,95,0.00,,,0.01,weatherlink.com 1.10,2013-05-24 09:41:00,
2013-05-24 05:56:00,63.4,62.0,29.79,NNW,332,0.0,0.0,95,0.00,,,0.01,weatherlink.com 1.10,2013-05-24 09:56:00,
2013-05-24 06:11:00,63.6,62.0,29.79,NNW,332,0.0,0.0,95,0.00,,,0.01,weatherlink.com 1.10,2013-05-24 10:11:00,
2013-05-24 06:26:00,63.8,62.0,29.80,NNW,332,1.0,1.0,95,0.00,,,0.01,weatherlink.com 1.10,2013-05-24 10:26:00,
2013-05-24 06:41:00,64.0,62.0,29.80,WNW,286,0.0,3.0,94,0.00,,,0.01,weatherlink.com 1.10,2013-05-24 10:41:00,
2013-05-24 06:56:00,64.3,61.0,29.80,WNW,286,1.0,7.0,90,0.00,,,0.01,weatherlink.com 1.10,2013-05-24 10:56:00,
2013-05-24 07:11:00,64.0,61.0,29.81,NNW,327,1.0,6.0,90,0.00,,,0.01,weatherlink.com 1.10,2013-05-24 11:11:00,
2013-05-24 07:26:00,63.4,60.0,29.82,WNW,296,5.0,8.0,89,0.00,,,0.01,weatherlink.com 1.10,2013-05-24 11:26:00,
2013-05-24 07:41:00,61.3,57.0,29.84,NW,305,4.0,11.0,85,0.00,,,0.01,weatherlink.com 1.10,2013-05-24 11:41:00,
2013-05-24 07:56:00,59.3,55.0,29.86,WNW,297,2.0,11.0,84,0.00,,,0.01,weatherlink.com 1.10,2013-05-24 11:56:00,
2013-05-24 08:11:00,58.6,54.0,29.86,WSW,255,9.0,11.0,84,0.00,,,0.01,weatherlink.com 1.10,2013-05-24 12:11:00,
2013-05-24 08:26:00,58.2,53.0,29.86,WNW,303,6.0,14.0,82,0.00,,,0.01,weatherlink.com 1.10,2013-05-24 12:26:00,
2013-05-24 08:41:00,57.7,51.0,29.88,WNW,286,1.0,15.0,78,0.00,,,0.01,weatherlink.com 1.10,2013-05-24 12:41:00,
2013-05-24 08:57:00,57.1,50.0,29.89,WNW,295,1.0,8.0,78,0.00,,,0.01,weatherlink.com 1.10,2013-05-24 12:57:00,
2013-05-24 09:12:00,56.8,50.0,29.90,West,269,2.0,6.0,79,0.00,,,0.01,weatherlink.com 1.10,2013-05-24 13:12:00,
2013-05-24 09:27:00,56.7,49.0,29.91,West,269,7.0,10.0,76,0.00,,,0.01,weatherlink.com 1.10,2013-05-24 13:27:00,
2013-05-24 09:42:00,56.6,49.0,29.92,WSW,252,7.0,11.0,75,0.00,,,0.01,weatherlink.com 1.10,2013-05-24 13:42:00,
2013-05-24 09:57:00,56.7,49.0,29.92,NW,316,4.0,10.0,74,0.00,,,0.01,weatherlink.com 1.10,2013-05-24 13:57:00,
2013-05-24 10:12:00,56.9,48.0,29.93,West,269,2.0,12.0,72,0.00,,,0.01,weatherlink.com 1.10,2013-05-24 14:12:00,
2013-05-24 10:27:00,56.7,48.0,29.93,North,357,3.0,12.0,72,0.00,,,0.01,weatherlink.com 1.10,2013-05-24 14:27:00,
2013-05-24 10:42:00,55.7,49.0,29.94,WNW,296,4.0,10.0,77,0.00,,,0.01,weatherlink.com 1.10,2013-05-24 14:42:00,
2013-05-24 10:57:00,55.2,48.0,29.94,WNW,303,2.0,10.0,78,0.00,,,0.01,weatherlink.com 1.10,2013-05-24 14:57:00,
2013-05-24 11:12:00,55.1,47.0,29.95,NNW,330,8.0,11.0,73,0.00,,,0.01,weatherlink.com 1.10,2013-05-24 15:12:00,
2013-05-24 11:27:00,55.3,47.0,29.95,NW,325,3.0,10.0,74,0.00,,,0.01,weatherlink.com 1.10,2013-05-24 15:27:00,
2013-05-24 11:42:00,55.3,46.0,29.96,West,276,8.0,12.0,71,0.00,,,0.01,weatherlink.com 1.10,2013-05-24 15:42:00,
2013-05-24 11:57:00,56.5,46.0,29.96,NW,322,2.0,13.0,67,0.00,,,0.01,weatherlink.com 1.10,2013-05-24 15:57:00,
2013-05-24 12:12:00,57.1,46.0,29.96,NNW,333,2.0,15.0,66,0.00,,,0.01,weatherlink.com 1.10,2013-05-24 16:12:00,
2013-05-24 12:27:00,56.7,45.0,29.97,WNW,302,4.0,11.0,65,0.00,,,0.01,weatherlink.com 1.10,2013-05-24 16:27:00,
2013-05-24 12:42:00,56.7,45.0,29.97,NNE,16,1.0,9.0,66,0.00,,,0.01,weatherlink.com 1.10,2013-05-24 16:42:00,
2013-05-24 12:57:00,56.2,44.0,29.98,WNW,286,8.0,12.0,65,0.00,,,0.01,weatherlink.com 1.10,2013-05-24 16:57:00,
2013-05-24 13:12:00,55.7,44.0,29.98,WNW,294,2.0,11.0,66,0.00,,,0.01,weatherlink.com 1.10,2013-05-24 17:12:00,
2013-05-24 13:27:00,56.5,44.0,29.97,WNW,294,1.0,12.0,63,0.00,,,0.01,weatherlink.com 1.10,2013-05-24 17:27:00,
2013-05-24 13:42:00,57.8,45.0,29.98,West,260,5.0,8.0,63,0.00,,,0.01,weatherlink.com 1.10,2013-05-24 17:42:00,
2013-05-24 13:57:00,56.7,44.0,30.00,NW,314,3.0,10.0,63,0.00,,,0.01,weatherlink.com 1.10,2013-05-24 17:57:00,
2013-05-24 14:12:00,56.7,44.0,29.99,NW,325,5.0,14.0,62,0.00,,,0.01,weatherlink.com 1.10,2013-05-24 18:12:00,
2013-05-24 14:27:00,56.5,44.0,30.00,West,276,2.0,10.0,63,0.00,,,0.01,weatherlink.com 1.10,2013-05-24 18:27:00,
2013-05-24 14:42:00,56.4,43.0,30.00,West,281,2.0,9.0,62,0.00,,,0.01,weatherlink.com 1.10,2013-05-24 18:42:00,
2013-05-24 14:57:00,56.3,43.0,30.00,WSW,244,7.0,9.0,62,0.00,,,0.01,weatherlink.com 1.10,2013-05-24 18:57:00,
2013-05-24 15:12:00,56.4,43.0,30.00,West,263,1.0,12.0,61,0.00,,,0.01,weatherlink.com 1.10,2013-05-24 19:12:00,
2013-05-24 15:27:00,56.9,43.0,30.01,West,261,4.0,14.0,60,0.00,,,0.01,weatherlink.com 1.10,2013-05-24 19:27:00,
2013-05-24 15:42:00,57.0,43.0,30.01,NW,321,4.0,14.0,60,0.00,,,0.01,weatherlink.com 1.10,2013-05-24 19:42:00,
2013-05-24 15:57:00,57.6,44.0,30.01,NW,305,1.0,9.0,61,0.00,,,0.01,weatherlink.com 1.10,2013-05-24 19:57:00,
2013-05-24 16:12:00,57.6,43.0,30.01,WNW,286,8.0,11.0,59,0.00,,,0.01,weatherlink.com 1.10,2013-05-24 20:12:00,
2013-05-24 16:27:00,56.6,43.0,30.01,West,271,1.0,13.0,60,0.00,,,0.01,weatherlink.com 1.10,2013-05-24 20:27:00,
2013-05-24 16:41:00,57.0,43.0,30.01,WNW,286,5.0,13.0,60,0.00,,,0.01,weatherlink.com 1.10,2013-05-24 20:41:00,
2013-05-24 16:57:00,57.0,43.0,30.02,West,271,8.0,14.0,60,0.00,,,0.01,weatherlink.com 1.10,2013-05-24 20:57:00,
2013-05-24 17:12:00,56.4,42.0,30.03,West,276,5.0,11.0,59,0.00,,,0.01,weatherlink.com 1.10,2013-05-24 21:12:00,
2013-05-24 17:27:00,56.6,42.0,30.03,SW,226,7.0,11.0,59,0.00,,,0.01,weatherlink.com 1.10,2013-05-24 21:27:00,
2013-05-24 17:42:00,56.6,42.0,30.03,West,267,5.0,11.0,58,0.00,,,0.01,weatherlink.com 1.10,2013-05-24 21:42:00,
2013-05-24 17:57:00,56.8,41.0,30.03,SW,236,4.0,11.0,57,0.00,,,0.01,weatherlink.com 1.10,2013-05-24 21:57:00,
2013-05-24 18:12:00,56.5,41.0,30.04,NNW,346,5.0,12.0,56,0.00,,,0.01,weatherlink.com 1.10,2013-05-24 22:12:00,
2013-05-24 18:27:00,56.4,41.0,30.05,WSW,255,3.0,8.0,56,0.00,,,0.01,weatherlink.com 1.10,2013-05-24 22:27:00,
2013-05-24 18:42:00,56.3,41.0,30.05,NNW,341,5.0,10.0,56,0.00,,,0.01,weatherlink.com 1.10,2013-05-24 22:42:00,
2013-05-24 18:57:00,55.9,40.0,30.07,NE,49,7.0,14.0,56,0.00,,,0.01,weatherlink.com 1.10,2013-05-24 22:57:00,
2013-05-24 19:12:00,55.7,39.0,30.07,North,358,4.0,11.0,54,0.00,,,0.01,weatherlink.com 1.10,2013-05-24 23:12:00,
2013-05-24 19:27:00,55.7,39.0,30.07,NW,315,6.0,11.0,53,0.00,,,0.01,weatherlink.com 1.10,2013-05-24 23:27:00,
2013-05-24 19:42:00,55.7,39.0,30.08,NW,313,4.0,13.0,53,0.00,,,0.01,weatherlink.com 1.10,2013-05-24 23:42:00,
2013-05-24 19:57:00,55.6,38.0,30.08,WSW,242,5.0,8.0,53,0.00,,,0.01,weatherlink.com 1.10,2013-05-24 23:57:00,
2013-05-24 20:12:00,55.3,39.0,30.09,NW,315,1.0,8.0,54,0.00,,,0.01,weatherlink.com 1.10,2013-05-25 00:12:00,
2013-05-24 20:27:00,55.1,38.0,30.10,WNW,291,1.0,8.0,53,0.00,,,0.01,weatherlink.com 1.10,2013-05-25 00:27:00,
2013-05-24 20:42:00,54.8,38.0,30.11,WNW,286,7.0,10.0,54,0.00,,,0.01,weatherlink.com 1.10,2013-05-25 00:42:00,
2013-05-24 20:57:00,54.3,38.0,30.11,WSW,256,9.0,9.0,54,0.00,,,0.01,weatherlink.com 1.10,2013-05-25 00:57:00,
2013-05-24 21:12:00,53.9,38.0,30.11,NW,319,1.0,10.0,55,0.00,,,0.01,weatherlink.com 1.10,2013-05-25 01:12:00,
2013-05-24 21:27:00,53.5,37.0,30.11,West,281,3.0,13.0,55,0.00,,,0.01,weatherlink.com 1.10,2013-05-25 01:27:00,
2013-05-24 21:42:00,53.1,37.0,30.12,West,276,8.0,11.0,55,0.00,,,0.01,weatherlink.com 1.10,2013-05-25 01:42:00,
2013-05-24 21:57:00,52.7,37.0,30.13,SW,226,9.0,9.0,56,0.00,,,0.01,weatherlink.com 1.10,2013-05-25 01:57:00,
2013-05-24 22:12:00,52.4,36.0,30.14,West,271,5.0,13.0,55,0.00,,,0.01,weatherlink.com 1.10,2013-05-25 02:12:00,
2013-05-24 22:27:00,51.9,36.0,30.14,NW,322,5.0,7.0,55,0.00,,,0.01,weatherlink.com 1.10,2013-05-25 02:27:00,
2013-05-24 22:42:00,51.6,36.0,30.15,NW,307,3.0,8.0,55,0.00,,,0.01,weatherlink.com 1.10,2013-05-25 02:42:00,
2013-05-24 22:57:00,51.6,36.0,30.16,West,276,1.0,7.0,55,0.00,,,0.01,weatherlink.com 1.10,2013-05-25 02:57:00,
2013-05-24 23:12:00,51.5,36.0,30.16,West,271,2.0,11.0,55,0.00,,,0.01,weatherlink.com 1.10,2013-05-25 03:12:00,
2013-05-24 23:27:00,51.2,35.0,30.16,WNW,290,2.0,7.0,55,0.00,,,0.01,weatherlink.com 1.10,2013-05-25 03:27:00,
2013-05-24 23:42:00,50.8,35.0,30.16,West,276,5.0,7.0,56,0.00,,,0.01,weatherlink.com 1.10,2013-05-25 03:42:00,
2013-05-24 23:57:00,50.3,35.0,30.16,WSW,247,3.0,9.0,56,0.00,,,0.01,weatherlink.com 1.10,2013-05-25 03:57:00,